Погода в Сенбере

Поиск расширенной информации на нашем сайте:

Полезная информация:

Новости сайта



02.01.2020
Опубликован Долгосрочный прогноз погоды по городам России и ближнего зарубежья на январь 2020 года.
Карты: Прогноз на январь и февраль 2020 года, Сравнение прогнозируемой аномалии приземной температуры воздуха на январь 2020 года по разным моделям.




Погода в Сенбере - сегодня

Время (UTC), дата Ветер
(°,м/с) 
Видим.   Явления Облачность Т
(°С)
Тd
(°С)
f(%) Тe
(°С)
Pmin
(гПа)
dP
(гПа)
Po
(мм)
O2
(г/м3)
Тmin Tmax R s Состояние
почвы
12 22.10.21 210 (ЮЗ) 11-16{17}  20000 м  {ливн. осадки}  10/6 600 м кучево-дожд., средняя 
[Cb cap|Ac As]
+2.4 -0.3 82 -2  1022.6  1.1  747  298           
15 22.10.21 200 (Ю) 9{16}  н/о    10/10 600 м 
[Sc]
+3 -0.5 78 -1  1024.1  1.5  748  298    +3     
18 22.10.21 200 (Ю) 10  н/о    10/6 600 м средняя 
[Sc|Ac As]
+4.2 +0.5 77 1024  748  297    +3     
21 22.10.21 210 (ЮЗ) 11-15{16}  н/о    10/0 средняя 
[Ac As]
+4.7 +0.3 73 +1  1024.2  0.3  748  296           
00 23.10.21 200 (Ю) 9{16}  н/о    10/0 средняя 
[Ac As]
+3.7 -1.3 70 1024.4  0.1  748  298           
03 23.10.21 200 (Ю) 20000 м    3/0 средняя 
[Ac As]
+2.1 -3.2 68 -2  1025  0.4  749  300           
06 23.10.21 210 (ЮЗ) 10  20000 м    4/0 верхняя 
[Ci sp]
+7.8 -1.4 52 +5  1025.2  0.8  749  294  +2         
09 23.10.21 220 (ЮЗ) 12-16{17}  20000 м    ясно 
+14 +2.5 46 +12  1024  -0.7  749  287           
12 23.10.21 210 (ЮЗ) 8{18}  20000 м    3/0 средняя 
[Ac As]
+13.1 +0.9 43 +12  1024.8  0.7  749  288           
15 23.10.21 180 (Ю) н/о    4/0 средняя 
[Ac lent]
+8.8 +0 54 +7  1026.8  1.7  751  293    +14.5       
18 23.10.21 190 (Ю) н/о    9/0 средняя 
[Ac As]
+9.3 +3.6 68 +8  1027.2  0.4  751  292    +14.5       
21 23.10.21 190 (Ю) н/о    10/10 600 м 
[Sc]
+9.2 +4 70 +7  1027.3  0.1  751  292           
00 24.10.21 180 (Ю) н/о    10/10 600 м 
[Sc]
+8.3 +4 74 +6  1027.4  751  293           
03 24.10.21 170 (Ю) 20000 м    6/0 средняя 
[Ac trans]
+6.2 +1.2 70 +4  1027.7  0.1  751  296           
06 24.10.21 190 (Ю) 20000 м    3/0 верхняя 
[Ci sp]
+11.6 +1.5 50 +10  1026.8  -0.4  751  290  +6.1         
09 24.10.21 210 (ЮЗ) 20000 м    ясно 
+14.2 +1.3 41 +13  1025.2  -1.4  750  287           
12 24.10.21 200 (Ю) 20000 м    ясно 
+13.6 +0.2 40 +13  1023.8  -1.4  749  287           
15 24.10.21 180 (Ю) н/о    ясно 
+5.8 -2.2 56 +6  1024.2  -0.3  748  296    +15       
18 24.10.21 180 (Ю) н/о    ясно 
+4.4 -2.3 62 +3  1023.2  -1.1  748  297    +15       
21 24.10.21 190 (Ю) н/о    5/0 верхняя 
[Ci sp]
+2.3 -2.3 72 +2  1021.9  -1.5  746  299           
00 25.10.21 180 (Ю) н/о    6/0 верхняя 
[Ci sp]
+1.1 -2.4 77 +2  1021.2  -0.8  746  300           
03 25.10.21 190 (Ю) 20000 м    4/0 верхняя 
[Cs]
+1.3 -1.6 81 1020.5  -0.7  745  299           
06 25.10.21 190 (Ю) 20000 м    6/0 верхняя 
[Cs]
+10.9 -1.7 41 +9  1018.7  -0.8  745  289  +1         
09 25.10.21 180 (Ю) 20000 м    8/0 средняя, верхняя 
[Ac lent|Cs]
+15.8 +1.5 38 +15  1016.1  -2  743  283           
12 25.10.21 190 (Ю) 20000 м    9/0 средняя, верхняя 
[Ac As|Cs]
+15.3 +0.6 37 +15  1014.8  -1.4  742  283           
Время (UTC), дата Ветер
(°,м/с) 
Видим.   Явления Облачность Т
(°С)
Тd
(°С)
f(%) Тe
(°С)
Pmin
(гПа)
dP
(гПа)
Po
(мм)
O2
(г/м3)
Тmin Tmax R s Состояние
почвы

Для получения пояснительной информации подведите курсор к названию столбца.

ПОГОДА в Сенбере - архив

Всё, что Вы хотите узнать о погоде в Сенбере - удобно и подробно!

Выберите нужную дату (начиная с 1 января 2019* года) и нажмите кнопку "Найти".
Будут отображены архивные сводки погоды по пункту Сенбер, начиная с указанной даты.


Отображать данные в формате CSV (для использования в таблицах Excel)


Внимание! Наш архив погоды предназначен исключительно для личного некоммерческого использования в познавательных целях. Если Вам необходимы официальные справки о состоянии погоды (для производственных, юридических, коммерческих и т.п. целей), обращайтесь в органы Росгидромета.

*Примечание: данная дата относится к архиву по метеостанциям СССР (Россия, СНГ, Балтия).
Архив по метеостанциям Зарубежной Европы и Азии (кроме Китая) хранится 10 дней, по другим регионам земного шара (Китай, Африка, Америка, Австралия, Океания) - 1 день.

Сенбер - район местоположения метеостанции


Название, широта, долгота, высота метеостанции:
Сенбер 49.8°ш. 66.2°д. 229 м над ур. моря [Казахстан]

Дополнительная информация

В oтличие oт бoльшинства пoгoдных сайтoв мы публикуем пoдрoбную метеoинфoрмацию в детальнoм прoфессиoнальнoм фoрмате.

Характеристики температуры и влажнoсти вoздуха измеряются на высoте 2 м в тени вдали oт зданий и деревьев.
Скoрoсть ветра измеряется на высoте 10 м (на урoвне рoста челoвека скoрoсть ветра ниже в 1.5-2 раза). Если метеoстанция нахoдится в гoрoде или в лесу, тo скoрoсть ветра занижена на 2-4 м/с пo сравнению с oткрытым местoм. Скoрoсть ветра над акватoриями крупных рек и oзёр, а также на вершинах хoлмoв на 2-5 м/с выше, чем в oбычных услoвиях.
Атмoсфернoе давление в разных тoчках местнoсти мoжет значительнo oтличаться oт давления на метеoстанции, в зависимoсти oт услoвий рельефа (при пoдъёме на 10 м давление пoнижается примернo на 1 мм рт.ст.).